Location: Brookshire
(37.7591°N, 122.0283°W)
Time: 11:14:10
(UTC+00:00)

Daily predictions for brighter satellites

Satellite Brightness Start Highest point End
(mag) Time Altitude Azimuth Time Altitude Azimuth Time Altitude Azimuth
ATLAS 2AS CENTAUR R/B 3.8 12:08:22 25° N 12:12:05 41° NE 12:18:39 10° ESE
OAO 3 Rocket 4.3 12:21:23 40° SE 12:21:23 40° SE 12:24:41 10° ESE
CZ-2C R/B 3.8 12:19:39 10° NNE 12:21:57 28° NNE 12:21:57 28° NNE
OAO 2 Rocket 4.0 12:30:36 46° SSE 12:30:36 46° SSE 12:34:44 10° ESE
ASTEX 1 3.5 12:27:23 10° SSE 12:32:19 76° E 12:32:27 75° ENE
Meteor 2-20 Rocket 4.5 12:32:30 10° N 12:38:43 79° E 12:44:51 10° S
Cosmos 2360 Rocket 4.1 12:34:44 10° N 12:39:30 27° ENE 12:44:15 10° ESE
Cosmos 1980 Rocket 4.0 12:48:58 17° SSW 12:48:58 17° SSW 12:50:25 10° SSW
SL-16 R/B 2.4 12:42:54 31° N 12:45:40 71° ENE 12:51:18 10° SSE
Meteor 2-20 4.3 12:46:07 41° NNW 12:48:13 64° W 12:54:15 10° S
Cosmos 2322 Rocket 2.4 12:48:44 23° NNW 12:52:17 68° ENE 12:57:56 10° SSE
Cosmos 1825 3.3 12:50:48 10° SSE 12:54:21 43° E 12:57:57 10° NNE
ATLAS CENTAUR R/B 2.1 13:01:41 46° NNW 13:01:41 46° NNW 13:05:49 10° NNE
Cosmos 2100 Rocket 3.9 12:56:32 10° SSW 13:02:39 65° W 13:08:46 10° N
Cosmos 2298 Rocket 3.9 13:01:29 10° SSW 13:06:40 64° WNW 13:11:57 10° NNE
COBE Rocket 3.9 13:06:28 10° S 13:11:37 80° W 13:16:41 10° NNW
Cosmos 1484 Rocket 2.8 13:08:19 10° NNE 13:12:21 83° ESE 13:16:20 10° S
Cosmos 1151 Rocket 3.1 13:08:50 10° N 13:13:12 78° E 13:17:31 10° S
BREEZE-M DEB (TANK) 3.9 13:05:59 21° NW 13:13:25 60° NNE 13:17:13 10° ESE
STARLINK-67 3.8 13:16:50 32° NE 13:16:52 32° NE 13:19:17 10° ESE
SL-4 R/B 2.8 13:16:16 29° NNW 13:18:37 59° NE 13:23:21 10° ESE
Cosmos 1408 2.7 13:17:45 10° SSW 13:21:20 50° W 13:24:55 10° N
Cosmos 1802 Rocket 4.0 13:16:51 10° SSW 13:23:10 60° W 13:29:30 10° N
NOSS 3-4 (A) 4.0 13:16:56 14° NNW 13:23:24 82° ENE 13:31:16 10° SE
NOSS 3-4 (C) 4.0 13:17:02 13° NNW 13:23:30 81° ENE 13:31:22 10° SE
Okean O Rocket 2.6 13:19:58 10° NNE 13:24:11 48° E 13:28:23 10° S
Cosmos 2228 Rocket 4.4 13:19:54 10° N 13:24:17 42° E 13:28:37 10° SSE
Cosmos 1328 Rocket 3.4 13:21:07 10° NNW 13:25:24 68° W 13:29:40 10° S
SKYMED 2 3.5 13:23:35 10° SSE 13:27:56 86° ENE 13:32:17 10° NNW
Cosmos 2219 Rocket 4.3 13:24:14 10° N 13:28:40 23° NE 13:33:05 10° ESE
CZ-4B R/B 3.9 13:24:38 10° NNE 13:30:00 56° ESE 13:35:25 10° S
Cosmos 1515 Rocket 3.6 13:26:25 10° N 13:30:46 81° E 13:35:05 10° S
Cosmos 2173 Rocket 4.3 13:25:26 10° SSW 13:31:16 40° WNW 13:37:03 10° N
Cosmos 1743 Rocket 3.5 13:27:20 10° S 13:31:39 84° E 13:35:59 10° N
Shenzhou-11 Module 2.6 13:34:05 33° SW 13:34:16 33° SSW 13:36:45 10° SE
Abrixas rocket 4.0 13:34:33 16° N 13:34:33 16° N 13:36:20 10° NNE
COSMOS 2455 3.2 13:30:49 22° NW 13:34:18 42° WSW 13:39:53 10° S
Cosmos 1400 Rocket 4.0 13:30:42 10° N 13:34:35 44° ENE 13:38:23 10° SSE
ALOS 2.3 13:29:58 10° NNE 13:34:39 82° ESE 13:39:19 10° S
Cosmos 2333 Rocket 4.1 13:30:00 10° N 13:34:51 27° ENE 13:39:40 10° ESE
Meteor PRIRODA 4.2 13:31:50 10° N 13:35:10 34° WNW 13:38:28 10° SW
MOS 1-B 4.3 13:31:28 10° N 13:37:15 71° WNW 13:42:58 10° SSW
Cosmos 1238 Rocket 4.1 13:31:54 10° S 13:38:29 79° E 13:44:26 10° N
BREEZE-M DEB (TANK) 3.1 13:38:01 29° WNW 13:39:26 63° SW 13:46:23 10° SE
Helios 1A Rocket 3.0 13:37:31 10° NNE 13:41:36 79° E 13:45:39 10° S
Timation 2 Rocket 4.4 13:37:22 10° S 13:43:22 63° ESE 13:49:16 10° NNE
Cosmos 2061 Rocket 4.2 13:37:30 10° SSW 13:43:26 45° W 13:49:23 10° N
Cosmos 2233 Rocket 4.1 13:38:18 10° S 13:44:34 85° E 13:50:55 10° N
Cosmos 1408 Rocket 4.2 13:42:42 10° SW 13:46:31 30° WNW 13:50:22 10° NNW
CZ-3B R/B 3.1 13:43:54 10° WSW 13:49:21 24° S 13:52:45 10° SE
Cosmos 2346 Rocket 4.4 13:43:43 10° NNW 13:49:43 65° W 13:55:40 10° S
COSMOS 2487 4.5 13:51:54 13° NNW 13:51:54 13° NNW 13:52:35 10° NNW
Delta 2 Rocket 3.8 13:48:30 17° W 13:51:51 69° S 13:56:50 10° E
BREEZE-M DEB (TANK) 2.6 13:52:59 21° WSW 13:53:47 26° SW 13:56:13 10° SSE
Cosmos 1500 Rocket 3.6 13:49:54 10° SSW 13:54:17 59° W 13:58:41 10° N
Cosmos 1437 3.7 13:55:24 10° SW 13:57:57 24° WNW 14:00:31 10° NNW
Cosmos 1125 Rocket 3.8 13:55:03 10° SW 14:00:04 43° WNW 14:05:06 10° N
Sich 1 4.3 13:56:57 10° SSE 14:01:00 44° E 14:05:05 10° NNE
PAYLOAD B 4.3 13:56:16 10° N 14:01:38 55° WNW 14:06:58 10° SSW
CZ-2C R/B 4.1 14:00:04 10° NW 14:01:18 12° NW 14:01:18 12° NW
ATLAS 2AS CENTAUR R/B 3.2 13:56:08 10° NW 14:03:01 42° WSW 14:09:22 10° S
OAO 3 Rocket 4.4 13:59:12 12° W 14:03:04 30° SSW 14:07:13 10° SE
Meteor 1-26 Rocket 4.2 14:01:06 10° NNW 14:06:45 78° W 14:12:14 10° S
Cosmos 2237 4.4 14:09:48 10° NNW 14:15:19 51° WSW 14:20:49 10° S
COSMO-SKYMED 1 3.6 14:12:24 10° SSW 14:16:02 26° W 14:19:40 10° NW
NOAA 6 4.3 14:16:15 10° N 14:21:08 46° WNW 14:26:00 10° SW
Cosmos 2360 Rocket 2.7 14:18:19 10° NW 14:23:36 41° WSW 14:28:50 10° S
USA 116 4.4 14:22:23 10° SSW 14:25:08 25° W 14:28:06 10° NW
Cosmos 1606 3.7 14:22:43 10° NNW 14:25:57 27° W 14:29:12 10° SSW
COSMOS 2428 3.2 14:21:11 10° NNW 14:26:54 67° ENE 14:32:35 10° SSE
Exosat Rocket 4.4 14:21:35 10° NNW 14:27:30 82° ENE 14:35:49 10° SSE
Cosmos 2237 Rocket 4.1 14:24:12 10° N 14:28:58 27° ENE 14:33:41 10° ESE
SL-16 R/B 3.9 14:26:17 10° WNW 14:29:03 14° W 14:31:49 10° SW
